Regional Weather Roundup
Issued by NWS

Home | Current Version | Previous Version | Graphics & Text | Print | Product List | Glossary On
Versions: 1 2 3 4 5 6 7 8 9 10 11 12 13 14 15 16 17 18 19 20 21 22 23 24 25 26 27 28 29 30 31 32 33 34 35 36 37 38 39 40 41 42 43 44 45 46 47 48 49 50
000
ASUS45 KBOU 061407
RWRCO

WEATHER ROUNDUP FOR COLORADO
NATIONAL WEATHER SERVICE DENVER/BOULDER CO
700 AM MST FRI MAR 06 2015

NOTE: "FAIR" INDICATES FEW OR NO CLOUDS BELOW 12000 FEET WITH NO
SIGNIFICANT WEATHER AND/OR OBSTRUCTIONS TO VISIBILITY.

COZ001>005-013-030-031-061500-
...NORTHWEST COLORADO...

CITY           SKY/WX    TMP DP  RH WIND       PRES   REMARKS
CRAIG          PTCLDY    10   5  80 CALM      30.43R
HAYDEN         PTCLDY    12   3  67 SE12      30.41R WCI  -2
MEEKER         PTCLDY    19  12  74 E7        30.43S WCI  10
MOUNT WERNER   NOT AVBL
STEAMBOAT SPGS PTCLDY     5   2  87 CALM      30.43R
WALDEN         PTCLDY    18   9  68 SE6       30.35R WCI   9
$$

COZ006>008-011-061500-
...WEST CENTRAL VALLEYS...

CITY           SKY/WX    TMP DP  RH WIND       PRES   REMARKS
GRAND JUNCTION CLEAR     24  17  74 SE6       30.44R WCI  17
MONTROSE       PTCLDY    21  13  71 SE6       30.46R WCI  13
EAGLE          PTCLDY    14  10  85 CALM      30.49S
RIFLE          PTCLDY    21  15  78 CALM      30.47R
DELTA          PTCLDY    24  19  81 NE3       30.47R
NUCLA          PTCLDY    21  14  73 E6        30.45S WCI  14
$$

COZ017>023-064>068-061500-
...SOUTHWEST COLORADO...

CITY           SKY/WX    TMP DP  RH WIND       PRES   REMARKS
DURANGO        CLEAR     17  12  80 N6        30.38R WCI   9
CORTEZ         CLEAR     19  15  84 E3        30.40R
PAGOSA SPRINGS CLEAR     12  10  93 CALM      30.37S
TELLURIDE      PTCLDY    20   2  47 SE6       30.40R WCI  12
WOLF CREEK PAS PTCLDY    19  -4  35 SW5       30.42R WCI  13
$$

COZ009-010-012-014-032>034-037-058>063-061500-
...CENTRAL COLORADO...

CITY           SKY/WX    TMP DP  RH WIND       PRES   REMARKS
ASPEN          PTCLDY     9   3  78 S5        30.42R WCI   0
BUENA VISTA    PTCLDY    12   4  70 CALM      30.38R
COPPER MTN     MOCLDY    16   0  48 W22G28    30.34S WCI  -2
BERTHOUD PASS  NOT AVBL
COTTONWOOD PAS PTCLDY    27  -8  22 N3        30.35R
GUNNISON       PTCLDY     0  -6  78 CALM      30.50R
KREMMLING      MOCLDY     5   1  85 CALM      30.46R
LEADVILLE      PTCLDY     3  -7  63 NE9       30.36R WCI -12
SALIDA         PTCLDY    23   5  46 N12       30.45R WCI  12
SUNLIGHT       PTCLDY    21  12  68 NW5         N/A  WCI  15
WILKERSON PASS PTCLDY    19  -8  30 NW13G29   30.34S WCI   7
$$

COZ069>075-061500-
...SAN LUIS VALLEY/SANGRE DE CRISTO MOUNTAINS...

CITY           SKY/WX    TMP DP  RH WIND       PRES   REMARKS
ALAMOSA        PTCLDY    13   8  81 SW3       30.40S
LA VETA PASS   CLEAR     21   0  39 S9G23     30.32S WCI  11
SAGUACHE       PTCLDY    19   7  58 N12       30.40R WCI   7
$$

COZ035-036-038>040-061500-
...NORTHERN COLORADO FRONT RANGE...

CITY           SKY/WX    TMP DP  RH WIND       PRES   REMARKS
DENVER INTL AP PTCLDY    28  10  46 CALM      30.26R
DMNS CITY PARK   N/A     27  13  54 S6        30.28R WCI  20
AURORA         PTCLDY    27   8  43 S10       30.27R WCI  18
FRONT RANGE AP NOT AVBL
ERIE MUNI ARPT PTCLDY    17  11  75 SW5       30.27R WCI  10
BOULDER MUN AP PTCLDY    25  14  63 W6        30.26R WCI  18
CENTENNIAL     PTCLDY    23   8  52 SE5       30.26R WCI  17
BROOMFIELD     MOCLDY    32   9  37 CALM      30.26R
FORT COLLINS   PTCLDY    19  12  73 S6        30.27S WCI  11
LONGMONT       PTCLDY    20  13  74 CALM      30.29R
$$

COZ041-046-047-076>085-087-088-061500-
...PIKES PEAK/PALMER DIVIDE AND SOUTHERN FOOTHILLS...

CITY           SKY/WX    TMP DP  RH WIND       PRES   REMARKS
COLO. SPRINGS  PTCLDY    23  10  57 N9        30.29R WCI  13
A. F. ACADEMY  PTCLDY    25   3  38 VRB3      30.27R
ELLICOTT       NOT AVBL
FALCON         CLEAR     22   6  51 NW6       30.29S WCI  14
FORT CARSON    CLEAR     23  11  61 NW8       30.27R WCI  14
LIMON          CLEAR      8   2  76 N8        30.28R WCI  -4
MONUMENT HILL  PTCLDY    27   3  36 SW8       30.27R WCI  18
TRINIDAD       CLEAR     27  15  61 W8        30.30R WCI  19
$$

COZ042>045-048>051-090-091-061500-
...NORTHEAST COLORADO...

CITY           SKY/WX    TMP DP  RH WIND       PRES   REMARKS
GREELEY ARPT   PTCLDY    19  10  68 SW5       30.26R WCI  13
AKRON          CLEAR     26  19  74 W13       30.25R WCI  15
BURLINGTON     CLEAR     27  18  69 SW9       30.26S WCI  18
WRAY           PTCLDY    25  21  82 W9        30.26R WCI  16
STERLING       CLEAR     21  19  93 S10       30.25S WCI  10
HOLYOKE        PTCLDY    32  21  64 W13       30.23S WCI  22
FORT MORGAN    CLEAR     22  17  79 W10       30.27R WCI  11
$$

COZ086-089-092>099-061500-
...SOUTHEAST COLORADO...

CITY           SKY/WX    TMP DP  RH WIND       PRES   REMARKS
PUEBLO         PTCLDY    20  18  92 W5        30.29S WCI  13
LA JUNTA       CLEAR     28  22  78 W3        30.31S
LAMAR          CLEAR     25  22  88 MISG      30.31R
SPRINGFIELD      N/A     27  22  81 NW8       30.31R WCI  19
$$



USA.gov is the U.S. government's official web portal to all federal, state and local government web resources and services.